Satellite: CO-58
Catalog number: 28895
Epoch time:      07123.42394900
Element set:     717
Inclination:      098.1415 deg
RA of node:       021.1429 deg
Eccentricity:    0.0016898
Arg of perigee:   250.7698 deg
Mean anomaly:     109.1659 deg
Mean motion:   14.59544053 rev/day
Decay rate:       1.51e-06 rev/day^2
Epoch rev:            8056
Checksum:              327

Satellite: NCUBE2
Catalog number: 28897
Epoch time:      07122.68115021
Element set:     241
Inclination:      098.1366 deg
RA of node:       020.3729 deg
Eccentricity:    0.0016060
Arg of perigee:   256.3135 deg
Mean anomaly:     103.6284 deg
Mean motion:   14.59705285 rev/day
Decay rate:       1.70e-06 rev/day^2
Epoch rev:            7273
Checksum:              279

Satellite: NMARS
Catalog number: 29662
Epoch time:      07123.76661677
Element set:     255
Inclination:      051.6270 deg
RA of node:       317.1225 deg
Eccentricity:    0.0007050
Arg of perigee:   244.9936 deg
Mean anomaly:     115.0336 deg
Mean motion:   16.27061286 rev/day
Decay rate:   1.771625e-02 rev/day^2
Epoch rev:            2122
Checksum:              286

Satellite: FCAL
Catalog number: 29667
Epoch time:      07123.82060316
Element set:     127
Inclination:      051.6371 deg
RA of node:       326.7014 deg
Eccentricity:    0.0015610
Arg of perigee:   166.8629 deg
Mean anomaly:     193.2782 deg
Mean motion:   15.86590893 rev/day
Decay rate:     2.0142e-04 rev/day^2
Epoch rev:            2095
Checksum:              294

Satellite: FALCON
Catalog number: 30776
Epoch time:      07122.40977818
Element set:    0046
Inclination:      035.4324 deg
RA of node:       130.1655 deg
Eccentricity:    0.0000872
Arg of perigee:   031.7595 deg
Mean anomaly:     328.3174 deg
Mean motion:   15.02691488 rev/day
Decay rate:       4.18e-06 rev/day^2
Epoch rev:           00816
Checksum:              287

Satellite: MAST
Catalog number: 31126
Epoch time:      07123.43817764
Element set:      22
Inclination:      098.0854 deg
RA of node:       198.1180 deg
Eccentricity:    0.0095455
Arg of perigee:   163.4552 deg
Mean anomaly:     196.9777 deg
Mean motion:   14.53335617 rev/day
Decay rate:       3.94e-06 rev/day^2
Epoch rev:             235
Checksum:              305

Satellite: CAPE1
Catalog number: 31130
Epoch time:      07122.90338267
Element set:    0017
Inclination:      098.0833 deg
RA of node:       197.5635 deg
Eccentricity:    0.0103473
Arg of perigee:   165.0355 deg
Mean anomaly:     195.3913 deg
Mean motion:   14.51845069 rev/day
Decay rate:       2.17e-06 rev/day^2
Epoch rev:           00204
Checksum:              276

/EX





More information about the Keps mailing list